Weather History for K79J - October, 2012

Change the Weather History Date:

Sunday, October 7, 2012

  Actual Average Record
Temperature  
Mean Temperature 69 °F -  
Max Temperature 78 °F - - ()
Min Temperature 59 °F - - ()
Cooling Degree Days 4    
Growing Degree Days 19 (Base 50)    
Moisture  
Dew Point 57 °F    
Average Humidity 73    
Maximum Humidity 84    
Minimum Humidity 54    
Precipitation  
Precipitation 0.00 in - - ()
Sea Level Pressure  
Sea Level Pressure 30.04 in    
Wind  
Wind Speed 7 mph (North)    
Max Wind Speed 10 mph    
Max Gust Speed -    
Visibility 9 miles    
Events      
T = Trace of Precipitation, MM = Missing Value Source: NWS Daily Summary

Daily Weather History Graph

Daily Weather History Graph

Search for Another Location

Airport or City:

Trip Planner

Search our weather history database for the weather conditions in past years. The results will help you decide how hot, cold, wet, or windy it might be!

Date:

Astronomy

Oct. 07, 2012 Rise Set
Actual Time 6:43 AM CDT 6:22 PM CDT
Civil Twilight 6:19 AM CDT 6:46 PM CDT
Nautical Twilight 5:51 AM CDT 7:14 PM CDT
Astronomical Twilight 5:22 AM CDT 7:42 PM CDT
Moon 11:48 PM CDT (10/7) 1:04 PM CDT (10/7)
Length of Visible Light 12h 27m
Length of Day
11h 39m
Waning Gibbous, 56% of the Moon is Illuminated
Oct 7
Waning Gibbous
Oct 8
Last Quarter
Oct 15
New
Oct 21
First Quarter
Oct 29
Full

Hourly Weather History & Observations

Time (CDT) Temp. Dew Point Humidity Pressure Visibility Wind Dir Wind Speed Gust Speed Precip Events Conditions
12:56 AM 68.0 °F 62.1 °F 81% 29.98 in 9.0 mi North 5.8 mph - N/A   Clear
1:56 AM 66.0 °F 60.1 °F 81% 29.99 in 10.0 mi NNE 5.8 mph - N/A   Clear
2:56 AM 64.0 °F 59.0 °F 84% 30.00 in 9.0 mi North 6.9 mph - N/A   Partly Cloudy
3:20 AM 64.4 °F 57.2 °F 77% 30.01 in 8.0 mi North 6.9 mph - N/A   Mostly Cloudy
3:56 AM 63.0 °F 57.9 °F 84% 30.00 in 7.0 mi NNE 10.4 mph - N/A   Overcast
4:56 AM 62.1 °F 57.0 °F 84% 30.01 in 7.0 mi NNE 6.9 mph - N/A   Mostly Cloudy
5:49 AM 60.8 °F 55.4 °F 82% 30.02 in 7.0 mi North 5.8 mph - N/A   Scattered Clouds
5:56 AM 61.0 °F 55.9 °F 83% 30.01 in 7.0 mi North 5.8 mph - N/A   Partly Cloudy
6:20 AM 60.8 °F 55.4 °F 82% 30.03 in 7.0 mi North 3.5 mph - N/A   Mostly Cloudy
6:43 AM 60.8 °F 55.4 °F 82% 30.03 in 7.0 mi North 6.9 mph - N/A   Overcast
6:56 AM 61.0 °F 55.9 °F 83% 30.03 in 6.0 mi North 9.2 mph - N/A   Haze
7:56 AM 61.0 °F 55.9 °F 83% 30.06 in 4.0 mi North 9.2 mph - N/A   Haze
8:56 AM 61.0 °F 55.9 °F 83% 30.08 in 4.0 mi NNW 10.4 mph - N/A   Haze
9:56 AM 62.1 °F 55.9 °F 80% 30.09 in 6.0 mi North 10.4 mph - N/A   Haze
10:21 AM 62.6 °F 55.4 °F 77% 30.11 in 7.0 mi North 9.2 mph - N/A   Overcast
10:56 AM 66.0 °F 55.9 °F 70% 30.09 in 10.0 mi NNE 9.2 mph - N/A   Overcast
11:15 AM 66.2 °F 57.2 °F 73% 30.09 in 10.0 mi NNE 5.8 mph - N/A   Overcast
11:48 AM 69.8 °F 57.2 °F 64% 30.08 in 10.0 mi NNE 9.2 mph - N/A   Scattered Clouds
11:56 AM 71.1 °F 57.9 °F 63% 30.07 in 10.0 mi NNE 8.1 mph - N/A   Partly Cloudy
12:56 PM 75.9 °F 60.1 °F 58% 30.04 in 10.0 mi North 5.8 mph - N/A   Partly Cloudy
1:56 PM 78.1 °F 61.0 °F 56% 30.01 in 10.0 mi North 6.9 mph - N/A   Partly Cloudy
2:56 PM 78.1 °F 60.1 °F 54% 29.99 in 10.0 mi ENE 8.1 mph - N/A   Clear
3:56 PM 77.0 °F 59.0 °F 54% 29.99 in 10.0 mi NE 6.9 mph - N/A   Mostly Cloudy
4:56 PM 73.0 °F 59.0 °F 61% 30.01 in 10.0 mi ENE 8.1 mph - N/A   Overcast
5:34 PM 73.4 °F 57.2 °F 57% 30.02 in 10.0 mi North 6.9 mph - N/A   Scattered Clouds
5:56 PM 72.0 °F 57.9 °F 61% 30.01 in 10.0 mi North 9.2 mph - N/A   Clear
6:56 PM 68.0 °F 57.9 °F 70% 30.03 in 10.0 mi North 5.8 mph - N/A   Clear
7:56 PM 66.0 °F 55.9 °F 70% 30.05 in 10.0 mi North 6.9 mph - N/A   Clear
8:56 PM 63.0 °F 53.1 °F 70% 30.07 in 10.0 mi North 8.1 mph - N/A   Clear
9:56 PM 61.0 °F 53.1 °F 75% 30.08 in 10.0 mi NNE 6.9 mph - N/A   Clear
10:56 PM 60.1 °F 52.0 °F 75% 30.07 in 10.0 mi North 4.6 mph - N/A   Clear
11:56 PM 59.0 °F 51.1 °F 75% 30.06 in 10.0 mi North 4.6 mph - N/A   Clear